Weather History for Oxford, CT

Change the Weather History Date:

Sunday, March 3, 2013

  Actual Average Record
Temperature  
Mean Temperature 27 °F -  
Max Temperature 30 °F 38 °F 55 °F (2002)
Min Temperature 24 °F 23 °F 3 °F (2003)
Degree Days  
Heating Degree Days 38    
Moisture  
Dew Point 17 °F    
Average Humidity 65    
Maximum Humidity 74    
Minimum Humidity 55    
Precipitation  
Precipitation 0.00 in - - ()
Sea Level Pressure  
Sea Level Pressure 29.67 in    
Wind  
Wind Speed 9 mph (NNW)    
Max Wind Speed 16 mph    
Max Gust Speed 23 mph    
Visibility 9 miles    
Events Snow    
Averages and records for this station are not official NWS values.
T = Trace of Precipitation, MM = Missing Value Source: NWS Daily Summary

Daily Weather History Graph

Daily Weather History Graph

Search for Another Location

Airport:

Trip Planner

Search our weather history database for the weather conditions in past years. The results will help you decide how hot, cold, wet, or windy it might be!

Date:

Astronomy

Mar. 03, 2013 Rise Set
Actual Time 6:23 AM EST 5:45 PM EST
Civil Twilight 5:55 AM EST 6:13 PM EST
Nautical Twilight 5:23 AM EST 6:45 PM EST
Astronomical Twilight 4:51 AM EST 7:17 PM EST
Moon No Moon Rise 9:31 AM EST (3/3)
Length of Visible Light 12h 17m
Length of Day
11h 22m
Waning Gibbous, 64% of the Moon is Illuminated
Mar 3
Waning Gibbous
Mar 4
Last Quarter
Mar 11
New
Mar 19
First Quarter
Mar 27
Full

Hourly Weather History & Observations

Time (EST) Temp. Windchill Dew Point Humidity Pressure Visibility Wind Dir Wind Speed Gust Speed Precip Events Conditions
12:15 AM 28.4 °F 21.2 °F 19.4 °F 69% 29.69 in 10.0 mi NNW 6.9 mph - N/A   Overcast
12:35 AM 28.4 °F 21.2 °F 19.4 °F 69% 29.68 in 10.0 mi NNW 6.9 mph - N/A   Overcast
12:55 AM 28.4 °F 20.4 °F 19.4 °F 69% 29.68 in 10.0 mi NNW 8.1 mph - N/A   Overcast
1:15 AM 28.4 °F 21.2 °F 19.4 °F 69% 29.69 in 10.0 mi NW 6.9 mph - N/A   Overcast
1:35 AM 28.4 °F 19.7 °F 19.4 °F 69% 29.69 in 10.0 mi NW 9.2 mph - N/A   Overcast
1:55 AM 26.6 °F 18.2 °F 17.6 °F 69% 29.68 in 10.0 mi NW 8.1 mph - N/A   Overcast
2:15 AM 26.6 °F 19.1 °F 17.6 °F 69% 29.68 in 10.0 mi NNW 6.9 mph - N/A   Overcast
2:35 AM 26.6 °F 15.7 °F 17.6 °F 69% 29.67 in 10.0 mi NNW 12.7 mph 17.3 mph N/A   Overcast
2:55 AM 26.6 °F 16.8 °F 17.6 °F 69% 29.67 in 10.0 mi NNW 10.4 mph 17.3 mph N/A   Overcast
3:15 AM 26.6 °F 16.8 °F 17.6 °F 69% 29.66 in 10.0 mi NNW 10.4 mph - N/A   Overcast
4:15 AM 26.6 °F 16.8 °F 17.6 °F 69% 29.66 in 10.0 mi NNW 10.4 mph - N/A   Overcast
4:35 AM 26.6 °F 17.5 °F 17.6 °F 69% 29.67 in 10.0 mi NNW 9.2 mph - N/A   Overcast
4:55 AM 26.6 °F 17.5 °F 15.8 °F 64% 29.67 in 10.0 mi NNW 9.2 mph - N/A   Overcast
5:15 AM 26.6 °F 18.2 °F 15.8 °F 64% 29.67 in 10.0 mi NW 8.1 mph - N/A   Overcast
5:35 AM 26.6 °F 16.8 °F 15.8 °F 64% 29.68 in 10.0 mi NW 10.4 mph - N/A   Overcast
5:45 AM 26.6 °F 18.2 °F 15.8 °F 64% 29.68 in 10.0 mi NNW 8.1 mph - N/A   Overcast
6:45 AM 24.8 °F 14.0 °F 15.8 °F 69% 29.68 in 10.0 mi NNW 11.5 mph - N/A   Overcast
7:45 AM 26.6 °F 20.0 °F 15.8 °F 64% 29.68 in 10.0 mi NNW 5.8 mph 17.3 mph N/A   Overcast
8:45 AM 26.6 °F 18.2 °F 14.0 °F 59% 29.68 in 10.0 mi North 8.1 mph 19.6 mph N/A   Overcast
9:45 AM 28.4 °F 18.5 °F 14.0 °F 55% 29.67 in 10.0 mi NNW 11.5 mph 23.0 mph N/A   Overcast
10:45 AM 28.4 °F 16.6 °F 14.0 °F 55% 29.66 in 10.0 mi NNW 16.1 mph - N/A   Overcast
11:45 AM 28.4 °F 19.7 °F 15.8 °F 59% 29.66 in 10.0 mi NW 9.2 mph 16.1 mph N/A   Overcast
12:45 PM 30.2 °F 20.8 °F 15.8 °F 55% 29.65 in 10.0 mi NW 11.5 mph 18.4 mph N/A   Overcast
1:45 PM 30.2 °F 18.9 °F 17.6 °F 60% 29.63 in 10.0 mi NNW 16.1 mph 23.0 mph N/A   Overcast
2:45 PM 30.2 °F 20.8 °F 19.4 °F 64% 29.63 in 5.0 mi NNW 11.5 mph 20.7 mph N/A Snow Light Snow
3:45 PM 28.4 °F 19.1 °F 19.4 °F 69% 29.64 in 5.0 mi NNW 10.4 mph 17.3 mph N/A Snow Light Snow
4:10 PM 26.6 °F 15.7 °F 19.4 °F 74% 29.64 in 2.5 mi NNW 12.7 mph 18.4 mph N/A Snow Light Snow
4:45 PM 30.2 °F 20.2 °F 19.4 °F 64% 29.64 in 2.5 mi NNW 12.7 mph 20.7 mph N/A Snow Light Snow
6:45 PM 28.4 °F 18.5 °F 19.4 °F 69% 29.66 in 8.0 mi NNW 11.5 mph 18.4 mph N/A Snow Light Snow
7:45 PM 28.4 °F 18.5 °F 17.6 °F 64% 29.67 in 8.0 mi NNW 11.5 mph 18.4 mph N/A Snow Light Snow
8:55 PM 28.4 °F 20.4 °F 17.6 °F 64% 29.68 in 10.0 mi NW 8.1 mph 18.4 mph N/A   Overcast
9:15 PM 28.4 °F 21.2 °F 15.8 °F 59% 29.68 in 10.0 mi NW 6.9 mph 17.3 mph N/A   Mostly Cloudy
9:55 PM 28.4 °F 20.4 °F 15.8 °F 59% 29.68 in 10.0 mi NW 8.1 mph - N/A   Overcast
10:15 PM 28.4 °F 20.4 °F 15.8 °F 59% 29.69 in 10.0 mi WNW 8.1 mph - N/A   Overcast
10:35 PM 26.6 °F 17.5 °F 15.8 °F 64% 29.68 in 10.0 mi NW 9.2 mph 16.1 mph N/A   Overcast
10:55 PM 26.6 °F 15.2 °F 15.8 °F 64% 29.69 in 10.0 mi NW 13.8 mph 19.6 mph N/A   Overcast
11:15 PM 26.6 °F 15.2 °F 15.8 °F 64% 29.68 in 10.0 mi NNW 13.8 mph 21.9 mph N/A   Overcast
11:35 PM 26.6 °F 16.8 °F 15.8 °F 64% 29.68 in 10.0 mi NNW 10.4 mph 23.0 mph N/A   Overcast
11:55 PM 26.6 °F 14.7 °F 14.0 °F 59% 29.69 in 10.0 mi NNW 15.0 mph 23.0 mph N/A   Overcast